This demonstration page uses our WeatherBlox Daily Observations layout. Learn more.

Left ArrowRight Arrow

40.92945, -100.16068

Hourly Observations for March 16, 2020

Temp ( °F °C ) Dew Point ( °F °C ) Humidity (%) Winds ( mph kmh ) Pressure ( in mb ) Visibility ( mi km ) Precip ( " mm )
12:15 am 00:15 Cloudy with Mist and Fog 33 0.5 33 0.5 100 100 SSE 12 19 30.31 1027 2 3 0.00 0.00
12:35 am 00:35 Cloudy with Mist and Fog 33 0.5 33 0.5 100 100 SSE 10 17 30.31 1027 3 5 0.00 0.00
12:55 am 00:55 Cloudy with Mist and Fog 33 0.5 33 0.5 100 100 SSE 9 15 30.30 1026 3 4 0.00 0.00
1:15 am 01:15 Cloudy with Mist and Fog 33 0.5 33 0.5 100 100 SSE 10 17 30.28 1025 2 3 0.00 0.00
1:35 am 01:35 Cloudy with Mist and Fog 33 0.5 33 0.5 100 100 SSE 10 17 30.28 1025 2 3 0.00 0.00
1:55 am 01:55 Cloudy with Mist and Fog 33 0.5 33 0.5 100 100 SSE 9 15 30.28 1025 2 3 0.00 0.00
2:15 am 02:15 Cloudy with Mist and Fog 33 0.5 33 0.5 100 100 SSE 10 17 30.27 1025 3 4 0.00 0.00
2:35 am 02:35 Cloudy with Mist and Fog 33 0.5 33 0.5 100 100 SSE 10 17 30.27 1025 3 5 0.00 0.00
2:55 am 02:55 Cloudy with Mist and Fog 33 0.5 33 0.5 100 100 SSE 9 15 30.27 1025 4 6 0.00 0.00
3:15 am 03:15 Cloudy with Mist and Fog 33 0.5 33 0.5 100 100 SSE 8 13 30.27 1025 5 8 0.00 0.00
3:35 am 03:35 Cloudy with Mist and Fog 33 0.5 33 0.5 100 100 SE 7 11 30.25 1024 5 8 0.00 0.00
3:55 am 03:55 Cloudy 33 0.5 33 0.5 100 100 SSE 6 9 30.25 1024 7 11 0.00 0.00
4:15 am 04:15 Cloudy 33 0.5 33 0.5 100 100 SSE 8 13 30.24 1024 7 11 0.00 0.00
4:35 am 04:35 Cloudy 33 0.6 33 0.6 100 100 SSE 8 13 30.24 1024 7 11 0.00 0.00
4:55 am 04:55 Cloudy with Mist and Fog 33 0.5 33 0.5 100 100 SE 6 9 30.24 1024 4 6 0.00 0.00
5:15 am 05:15 Cloudy with Mist and Fog 33 0.5 33 0.5 100 100 SSE 6 9 30.24 1024 3 4 0.00 0.00
5:35 am 05:35 Cloudy with Mist and Fog 33 0.5 33 0.5 100 100 SE 3 6 30.24 1024 2 2 0.00 0.00
5:55 am 05:55 Cloudy with Mist and Fog 33 0.5 33 0.5 100 100 SSE 7 11 30.24 1024 1 2 0.00 0.00
6:15 am 06:15 Cloudy with Mist and Fog 33 0.5 33 0.5 100 100 SSE 6 9 30.24 1024 1 1 0.00 0.00
6:35 am 06:35 Cloudy with Mist and Fog 33 0.5 33 0.5 100 100 SE 5 7 30.26 1025 1 2 0.00 0.00
6:55 am 06:55 Cloudy with Mist and Fog 33 0.6 33 0.6 100 100 SE 3 6 30.26 1025 1 2 0.00 0.00
7:15 am 07:15 Cloudy with Mist and Fog 33 0.6 33 0.6 100 100 SSE 3 6 30.26 1025 2 3 0.00 0.00
7:35 am 07:35 Cloudy with Mist and Fog 33 0.6 33 0.6 100 100 Calm 30.27 1025 2 3 0.00 0.00
7:55 am 07:55 Cloudy with Mist and Fog 33 0.6 33 0.6 100 100 Calm 30.27 1025 2 2 0.00 0.00
8:15 am 08:15 Cloudy with Mist and Fog 33 0.7 33 0.7 100 100 Calm 30.27 1025 2 2 0.00 0.00
8:35 am 08:35 Cloudy with Mist and Fog 33 0.8 33 0.8 100 100 Calm 30.27 1025 2 3 0.00 0.00
8:55 am 08:55 Cloudy with Mist and Fog 34 1 34 1 100 100 Calm 30.27 1025 2 2 0.00 0.00
9:15 am 09:15 Cloudy with Mist and Fog 34 1 34 1 100 100 Calm 30.28 1025 2 3 0.00 0.00
9:35 am 09:35 Cloudy with Mist and Fog 34 1.1 34 1.1 100 100 Calm 30.28 1025 3 5 0.00 0.00
9:55 am 09:55 Cloudy with Mist and Fog 34 1.2 34 1.2 100 100 N 3 6 30.29 1026 2 2 0.00 0.00
10:15 am 10:15 Cloudy with Mist and Fog 34 1.2 34 1.2 100 100 N 3 6 30.28 1025 2 3 0.00 0.00
10:35 am 10:35 Cloudy with Mist and Fog 35 1.5 35 1.5 100 100 Calm 30.28 1025 3 5 0.00 0.00
10:55 am 10:55 Cloudy 35 1.7 35 1.6 99 99 Calm 30.28 1025 7 11 0.00 0.00
11:15 am 11:15 Cloudy 36 2 35 1.6 97 97 N 3 6 30.28 1025 10 16 0.00 0.00
11:35 am 11:35 Cloudy 37 2.5 36 2 97 97 NNW 6 9 30.27 1025 10 16 0.00 0.00
11:55 am 11:55 Cloudy 37 2.6 36 2.1 97 97 NNW 7 11 30.27 1025 10 16 0.00 0.00
12:15 pm 12:15 Cloudy 38 3.1 36 2.4 95 95 N 7 11 30.27 1025 10 16 0.00 0.00
12:35 pm 12:35 Cloudy 38 3.1 36 2.2 94 94 NNE 3 6 30.27 1025 10 16 0.00 0.00
12:55 pm 12:55 Cloudy 40 4.2 37 2.7 90 90 N 5 7 30.25 1024 10 16 0.00 0.00
1:15 pm 13:15 Cloudy 40 4.5 37 2.9 89 89 N 6 9 30.24 1024 10 16 0.00 0.00
1:35 pm 13:35 Cloudy 41 5 38 3.2 88 88 NE 5 7 30.24 1024 10 16 0.00 0.00
1:55 pm 13:55 Cloudy 42 5.6 38 3.1 84 84 NE 6 9 30.23 1024 10 16 0.00 0.00
2:15 pm 14:15 Cloudy 42 5.6 37 2.8 82 82 NE 7 11 30.22 1023 10 16 0.00 0.00
2:35 pm 14:35 Cloudy 43 6.1 36 2.2 76 76 NNE 7 11 30.22 1023 10 16 0.00 0.00
2:55 pm 14:55 Cloudy 43 6 36 2.3 77 77 NNE 9 15 30.22 1023 10 16 0.00 0.00
3:15 pm 15:15 Cloudy 43 6 37 2.5 78 78 NNE 12 19 30.22 1023 10 16 0.00 0.00
3:35 pm 15:35 Cloudy 42 5.5 37 2.8 83 83 N 12 19 30.22 1023 10 16 0.00 0.00
3:55 pm 15:55 Cloudy 42 5.8 37 2.9 82 82 NNE 13 20 30.21 1023 10 16 0.00 0.00
4:15 pm 16:15 Cloudy 43 6 36 2.3 77 77 N 12 19 30.22 1023 10 16 0.00 0.00
4:35 pm 16:35 Cloudy 41 5.2 36 2.4 82 82 NNE 12 19 30.23 1024 10 16 0.00 0.00
4:55 pm 16:55 Cloudy 41 5.2 36 2.4 82 82 N 15 24 30.23 1024 10 16 0.00 0.00
5:15 pm 17:15 Cloudy 41 5 36 2.2 82 82 NNE 12 19 30.23 1024 10 16 0.00 0.00
5:35 pm 17:35 Cloudy 40 4.4 37 2.6 88 88 NNE 15 24 30.23 1024 10 16 0.00 0.00
5:55 pm 17:55 Cloudy 40 4.2 37 2.6 89 89 NNE 10 17 30.25 1024 10 16 0.00 0.00
6:15 pm 18:15 Cloudy 40 4.4 36 2.4 87 87 NNE 9 15 30.24 1024 10 16 0.00 0.00
6:35 pm 18:35 Cloudy 40 4.2 36 2.2 87 87 NNE 9 15 30.25 1024 10 16 0.00 0.00
6:55 pm 18:55 Cloudy 40 4.2 36 2.2 87 87 NNE 8 13 30.26 1025 10 16 0.00 0.00
7:15 pm 19:15 Cloudy 39 3.9 36 2 88 88 N 14 22 30.27 1025 10 16 0.00 0.00
7:35 pm 19:35 Cloudy 38 3.6 35 1.9 89 89 NNE 12 19 30.28 1025 10 16 0.00 0.00
7:55 pm 19:55 Cloudy 38 3.4 35 1.9 90 90 NNE 7 11 30.29 1026 10 16 0.00 0.00
8:15 pm 20:15 Cloudy 37 3 36 2 93 93 NNE 8 13 30.31 1026 10 16 0.00 0.00
8:35 pm 20:35 Cloudy 37 3 35 1.7 91 91 NNE 6 9 30.31 1026 10 16 0.00 0.00
8:55 pm 20:55 Cloudy 37 3 34 1.3 89 89 N 10 17 30.32 1027 10 16 0.00 0.00
9:15 pm 21:15 Cloudy 37 2.7 34 1 89 89 NNE 10 17 30.33 1027 10 16 0.00 0.00
9:35 pm 21:35 Cloudy 37 2.6 34 0.9 89 89 NNE 8 13 30.34 1027 10 16 0.00 0.00
9:55 pm 21:55 Cloudy 37 2.5 34 1 90 90 N 9 15 30.35 1028 10 16 0.00 0.00
10:15 pm 22:15 Cloudy 36 2.3 34 1 91 91 NNE 9 15 30.34 1028 10 16 0.00 0.00
10:35 pm 22:35 Cloudy 36 2.1 33 0.7 91 91 NNE 7 11 30.36 1028 10 16 0.00 0.00
10:55 pm 22:55 Cloudy 36 2 33 0.7 91 91 NNE 8 13 30.36 1028 10 16 0.00 0.00
11:15 pm 23:15 Cloudy 36 2 33 0.7 91 91 NNE 8 13 30.36 1028 10 16 0.00 0.00
11:35 pm 23:35 Cloudy 36 2 33 0.7 91 91 NNE 8 13 30.37 1028 10 16 0.00 0.00
11:55 pm 23:55 Cloudy 35 1.8 33 0.5 91 91 NNE 7 11 30.37 1028 10 16 0.00 0.00

Powered by AerisWeather